This is the latest recevied weather packets stored in our database for station/object EA1GHG-11. If no packets are shown the sender has not sent any weather packets the latest 10 day(s).
| Time | Temp. | Humidity | Pressure | Rain* | Wind** | Luminosity | Snow |
|---|---|---|---|---|---|---|---|
| 1778199127 | 9.44° C | 100% | 1013.9 hPa | - | - | - | - |
| 1778197627 | 9.44° C | 100% | 1014.1 hPa | - | - | - | - |
| 1778196127 | 10° C | 100% | 1014.1 hPa | - | - | - | - |
| 1778194627 | 10.56° C | 100% | 1014.2 hPa | - | - | - | - |
| 1778193127 | 11.11° C | 100% | 1014.3 hPa | - | - | - | - |
| 1778191627 | 10.56° C | 100% | 1014.6 hPa | - | - | - | - |
| 1778190127 | 11.67° C | 100% | 1014.6 hPa | - | - | - | - |
| 1778188627 | 11.11° C | 100% | 1014.4 hPa | - | - | - | - |
| 1778187126 | 11.67° C | 100% | 1014.2 hPa | - | - | - | - |
| 1778185626 | 12.78° C | 100% | 1013.8 hPa | - | - | - | - |
| 1778184126 | 13.33° C | 100% | 1013.4 hPa | - | - | - | - |
| 1778182626 | 13.89° C | 100% | 1013.1 hPa | - | - | - | - |
| 1778181126 | 14.44° C | 100% | 1013 hPa | - | - | - | - |
| 1778179626 | 15° C | 100% | 1012.9 hPa | - | - | - | - |
| 1778178124 | 16.67° C | 100% | 1012.6 hPa | - | - | - | - |
| 1778177525 | 16.67° C | 100% | 1012.8 hPa | - | - | - | - |
| 1778176025 | 16.11° C | 100% | 1012.6 hPa | - | - | - | - |
| 1778174525 | 16.11° C | 100% | 1012.5 hPa | - | - | - | - |
| 1778173025 | 14.44° C | 100% | 1012.5 hPa | - | - | - | - |
| 1778171564 | 14.44° C | 100% | 1012.8 hPa | - | - | - | - |
| 1778171525 | 14.44° C | 100% | 1012.8 hPa | - | - | - | - |
| 1778170025 | 13.33° C | 100% | 1012.9 hPa | - | - | - | - |
| 1778168525 | 15.56° C | 100% | 1013 hPa | - | - | - | - |
| 1778167024 | 16.11° C | 100% | 1013.1 hPa | - | - | - | - |
| 1778165524 | 13.89° C | 100% | 1012.8 hPa | - | - | - | - |
* Rain since midnight (hover to see other rain measurements)
** Current wind speed in m/s (hover to see current wind gust speed)